Location: ?????????
(44.2517°N, 135.2292°E)
Time: 14:37:49
(UTC+00:00)

NOSS 2-2 (C) - Pass Details

Date: 19 May 2025
Orbit: 386 x 1711 km, 63.3° (Epoch: 20 June)

Event Time Altitude Azimuth Distance (km) Brightness Sun altitude
Rises 17:04:04 0° 322° (NW) 2,657 7.1 -19.4°
Reaches altitude 10° 17:05:58 10° 321° (NW) 1,887 6.3 -19.2°
Maximum altitude 17:10:10 83° 234° (SW) 721 3.7 -18.8°
Drops below altitude 10° 17:16:08 10° 147° (SSE) 2,638 6.5 -18.2°
Sets 17:19:10 0° 147° (SSE) 3,817 7.4 -17.9°
